EW5804 Weather Reports


Display with metric or nautical units.
time (UTC)temp
F
wind
direction
speed
MPH
gust
MPH
rain 1hr
in
rain 24hr
in
rain mn
in
humidity
%
barometer
mb
20260509012448 56 188 0.0 0.0 0.00 0.00 0.00 74 1015.4
20260509011945 56 188 0.0 0.0 0.00 0.00 0.00 74 1015.3
20260509011441 56 188 0.0 0.0 0.00 0.00 0.00 74 1015.3
20260509010941 56 188 0.0 0.0 0.00 0.00 0.00 73 1015.3
20260509010442 57 188 0.0 0.0 0.00 0.00 0.00 73 1015.3
20260509005942 57 188 0.0 0.0 0.00 0.00 0.00 72 1015.2
20260509005441 57 188 0.0 0.0 0.00 0.00 0.00 72 1015.3
20260509004939 58 187 0.0 0.0 0.00 0.00 0.00 70 1015.1
20260509004657 59 188 0.0 0.0 0.00 0.00 0.00 69 1015.2
20260509003935 59 188 0.0 0.0 0.00 0.00 0.00 69 1015.2
20260509003415 60 187 0.0 0.0 0.00 0.00 0.00 68 1015.2
20260509002909 60 187 0.0 0.0 0.00 0.00 0.00 69 1015.1
20260509002838 61 188 0.0 0.0 0.00 0.00 0.00 67 1014.9
20260509002448 61 187 0.0 0.0 0.00 0.00 0.00 67 1015.1
20260509001353 62 188 0.0 0.0 0.00 0.00 0.00 67 1014.9
20260509000845 63 188 0.0 0.0 0.00 0.00 0.00 62 1014.9
20260509000355 64 187 0.0 0.0 0.00 0.00 0.00 64 1014.9
20260508235835 64 188 0.0 2.0 0.00 0.00 0.00 61 1014.7
20260508235334 65 188 0.0 2.0 0.00 0.00 0.00 58 1014.8
20260508235059 65 188 0.0 2.0 0.00 0.00 0.00 58 1014.6
20260508234334 66 188 0.0 2.0 0.00 0.00 0.00 59 1014.5
20260508233831 67 188 0.0 3.0 0.00 0.00 0.00 57 1014.5
20260508233330 68 188 0.0 3.0 0.00 0.00 0.00 54 1014.3
20260508233051 69 181 0.0 1.0 0.00 0.00 0.00 54 1014.4
20260508232816 69 181 0.0 2.0 0.00 0.00 0.00 52 1014.1
20260508232047 69 181 0.0 2.0 0.00 0.00 0.00 55 1014.2
20260508231329 69 173 0.0 3.0 0.00 0.00 0.00 48 1014.0
20260508230842 70 168 2.0 5.0 0.00 0.00 0.00 45 1014.0
20260508230545 70 180 2.0 5.0 0.00 0.00 0.00 46 1014.1
20260508225826 71 218 2.0 4.0 0.00 0.00 0.00 46 1014.2
20260508225325 71 182 2.0 8.0 0.00 0.00 0.00 48 1014.4
20260508224825 71 295 2.0 8.0 0.00 0.00 0.00 45 1014.2
20260508224325 71 258 2.0 6.0 0.00 0.00 0.00 47 1014.2
20260508223825 71 215 2.0 5.0 0.00 0.00 0.00 49 1014.2
20260508223327 71 296 3.0 8.0 0.00 0.00 0.00 44 1014.3
20260508222827 71 182 4.0 8.0 0.00 0.00 0.00 41 1014.3
20260508222328 71 178 4.0 8.0 0.00 0.00 0.00 43 1014.4
20260508221821 71 203 3.0 7.0 0.00 0.00 0.00 42 1014.4
20260508221323 71 192 2.0 7.0 0.00 0.01 0.00 45 1014.4
20260508220823 72 257 3.0 8.0 0.00 0.01 0.00 45 1014.3
20260508220323 72 255 3.0 8.0 0.00 0.01 0.00 43 1014.4
20260508215821 72 183 3.0 10.0 0.00 0.03 0.00 41 1014.5
20260508215322 72 321 3.0 10.0 0.00 0.03 0.00 42 1014.5
20260508215039 72 222 3.0 9.0 0.00 0.03 0.00 41 1014.5
20260508214321 72 180 3.0 9.0 0.00 0.03 0.00 46 1014.4
20260508213820 72 189 3.0 9.0 0.00 0.04 0.00 42 1014.4
20260508213319 72 206 3.0 9.0 0.00 0.05 0.00 40 1014.3
20260508213258 72 250 3.0 10.0 0.00 0.05 0.00 41 1014.4
20260508212317 72 232 4.0 10.0 0.00 0.05 0.00 39 1014.3
20260508211818 72 201 4.0 10.0 0.00 0.06 0.00 40 1014.3
20260508211311 72 238 4.0 9.0 0.00 0.08 0.00 41 1014.4
20260508210818 72 222 2.0 9.0 0.00 0.08 0.00 43 1014.3
20260508210259 72 280 2.0 5.0 0.00 0.08 0.00 45 1014.2
20260508205753 72 184 3.0 7.0 0.00 0.08 0.00 39 1014.4
20260508205246 72 182 3.0 10.0 0.00 0.08 0.00 43 1014.5
20260508204741 72 235 4.0 10.0 0.00 0.08 0.00 44 1014.5
20260508204236 71 108 4.0 10.0 0.00 0.08 0.00 43 1014.4
20260508203728 71 261 5.0 10.0 0.00 0.08 0.00 43 1014.5
20260508203222 71 315 4.0 11.0 0.00 0.08 0.00 43 1014.5
20260508202717 71 240 3.0 11.0 0.00 0.08 0.00 43 1014.5
20260508202211 70 325 2.0 8.0 0.00 0.08 0.00 40 1014.4
20260508201705 71 311 3.0 11.0 0.00 0.08 0.00 41 1014.5
20260508201159 71 193 4.0 11.0 0.00 0.08 0.00 45 1014.6
20260508200653 71 255 5.0 11.0 0.00 0.08 0.00 44 1014.7
20260508200146 71 283 5.0 11.0 0.00 0.08 0.00 40 1014.7
20260508195640 71 181 4.0 11.0 0.00 0.08 0.00 46 1014.7
20260508195135 71 124 3.0 10.0 0.00 0.08 0.00 40 1014.7
20260508194629 71 247 2.0 6.0 0.00 0.08 0.00 42 1014.9
20260508194124 71 271 2.0 7.0 0.00 0.08 0.00 39 1014.9
20260508193617 71 174 3.0 10.0 0.00 0.08 0.00 40 1014.9
20260508193110 70 315 4.0 10.0 0.00 0.08 0.00 42 1014.9
20260508192827 70 324 5.0 11.0 0.00 0.08 0.00 35 1015.0
20260508192325 71 116 4.0 11.0 0.00 0.08 0.00 37 1015.1
20260508191553 70 122 3.0 7.0 0.00 0.08 0.00 41 1015.2
20260508191046 70 275 4.0 8.0 0.00 0.08 0.00 39 1015.3
20260508190540 70 238 4.0 9.0 0.00 0.08 0.00 37 1015.6
20260508190034 70 285 5.0 10.0 0.00 0.08 0.00 34 1015.6
20260508185529 70 167 4.0 10.0 0.00 0.08 0.00 39 1015.7
20260508185023 69 192 3.0 8.0 0.00 0.08 0.00 41 1015.6
20260508184517 69 161 4.0 13.0 0.00 0.09 0.00 41 1015.6
20260508184011 69 257 4.0 13.0 0.00 0.09 0.00 37 1015.6
20260508183505 69 295 3.0 10.0 0.00 0.09 0.00 39 1015.8
20260508183000 69 117 4.0 10.0 0.00 0.09 0.00 37 1015.7
20260508182713 70 240 4.0 11.0 0.00 0.09 0.00 38 1015.8
20260508181946 70 214 3.0 11.0 0.00 0.09 0.00 43 1015.8
20260508181441 70 209 2.0 7.0 0.00 0.09 0.00 40 1015.9
20260508180935 69 274 3.0 7.0 0.00 0.09 0.00 40 1015.9
20260508180653 69 173 3.0 11.0 0.00 0.09 0.00 37 1016.1
20260508175922 69 207 3.0 11.0 0.00 0.09 0.00 41 1016.1
20260508175417 68 269 3.0 10.0 0.00 0.09 0.00 46 1016.1
20260508175131 67 285 2.0 10.0 0.00 0.09 0.00 42 1016.1
20260508174629 67 91 3.0 7.0 0.00 0.09 0.00 40 1016.1
20260508173858 67 244 2.0 7.0 0.00 0.09 0.00 42 1016.2
20260508173837 66 51 3.0 9.0 0.00 0.09 0.00 44 1016.3
20260508172847 66 49 3.0 9.0 0.00 0.09 0.00 40 1016.4
20260508172341 67 54 3.0 6.0 0.00 0.10 0.00 46 1016.5
20260508171835 67 205 4.0 8.0 0.00 0.10 0.00 44 1016.6
20260508171328 67 266 4.0 8.0 0.00 0.10 0.00 44 1016.7
20260508170823 67 277 4.0 8.0 0.00 0.10 0.00 52 1017.0
20260508170317 67 307 2.0 8.0 0.00 0.11 0.00 40 1017.0
20260508165811 67 269 1.0 4.0 0.00 0.13 0.00 44 1017.1
20260508165307 67 259 4.0 8.0 0.00 0.13 0.00 42 1017.2
20260508164758 67 313 4.0 9.0 0.00 0.13 0.00 41 1017.4
20260508164516 68 257 3.0 8.0 0.00 0.13 0.00 44 1017.4
20260508163747 67 166 3.0 8.0 0.00 0.14 0.00 49 1017.4
20260508163254 67 188 2.0 8.0 0.00 0.14 0.00 42 1017.5
20260508162735 67 123 2.0 5.0 0.00 0.15 0.00 39 1017.4
20260508162451 67 257 3.0 7.0 0.00 0.15 0.00 48 1017.4
20260508161944 66 268 3.0 7.0 0.00 0.16 0.00 42 1017.5
20260508161216 66 228 2.0 5.0 0.00 0.16 0.00 48 1017.5
20260508160711 66 230 2.0 5.0 0.00 0.16 0.00 44 1017.6
20260508160206 65 229 2.0 6.0 0.00 0.17 0.00 41 1017.6
20260508155702 65 216 2.0 6.0 0.00 0.17 0.00 39 1017.6
20260508155202 66 168 1.0 4.0 0.00 0.18 0.00 40 1017.7
20260508154701 65 350 1.0 4.0 0.00 0.19 0.00 41 1017.8
20260508154201 65 296 1.0 4.0 0.00 0.20 0.00 46 1017.9
20260508153700 65 230 2.0 4.0 0.00 0.23 0.00 43 1018.0
20260508153417 64 234 2.0 6.0 0.00 0.25 0.00 45 1018.0
20260508152920 63 9 3.0 7.0 0.00 0.28 0.00 42 1018.0
20260508152203 63 11 5.0 10.0 0.00 0.32 0.00 47 1018.0
20260508152158 63 78 4.0 7.0 0.00 0.30 0.00 44 1018.0
20260508151415 62 66 5.0 10.0 0.00 0.33 0.00 44 1018.1
20260508150657 62 65 5.0 10.0 0.00 0.33 0.00 46 1018.2
20260508150156 62 51 7.0 13.0 0.00 0.33 0.00 47 1018.1
20260508145657 62 81 6.0 13.0 0.00 0.33 0.00 45 1018.0
20260508145157 63 17 5.0 13.0 0.00 0.33 0.00 54 1017.9
20260508144658 62 246 5.0 11.0 0.00 0.33 0.00 53 1017.9
20260508144156 62 56 6.0 12.0 0.00 0.33 0.00 53 1017.9
20260508143657 62 54 6.0 12.0 0.00 0.33 0.00 51 1017.8
20260508143155 62 24 5.0 11.0 0.00 0.33 0.00 53 1017.9
20260508142654 61 46 6.0 13.0 0.00 0.33 0.00 55 1017.8
20260508142154 61 27 7.0 13.0 0.00 0.34 0.00 53 1017.8
20260508141655 61 55 4.0 11.0 0.00 0.34 0.00 54 1017.7
20260508141154 62 336 3.0 9.0 0.00 0.34 0.00 63 1017.7
20260508140656 61 34 3.0 9.0 0.00 0.34 0.00 60 1017.7
20260508140154 61 355 3.0 7.0 0.00 0.34 0.00 62 1017.6
20260508135654 61 221 2.0 7.0 0.00 0.34 0.00 62 1017.7
20260508135155 61 2 1.0 6.0 0.00 0.34 0.00 64 1017.7
20260508134651 60 295 2.0 7.0 0.00 0.34 0.00 68 1017.7
20260508134150 60 78 3.0 7.0 0.00 0.34 0.00 65 1017.7
20260508133651 60 263 3.0 6.0 0.00 0.34 0.00 68 1017.6
20260508133150 59 272 3.0 7.0 0.00 0.34 0.00 75 1017.6
20260508132650 59 53 3.0 7.0 0.00 0.34 0.00 72 1017.6
20260508132151 59 53 2.0 5.0 0.00 0.34 0.00 76 1017.5
20260508131651 58 39 2.0 7.0 0.00 0.34 0.00 76 1017.6
20260508131412 58 70 3.0 8.0 0.00 0.34 0.00 76 1017.5
20260508130901 57 34 3.0 7.0 0.00 0.34 0.00 78 1017.4
20260508130748 57 290 4.0 8.0 0.00 0.34 0.00 77 1017.5
20260508125646 56 32 3.0 9.0 0.00 0.34 0.00 81 1017.3
20260508125146 56 12 2.0 9.0 0.00 0.34 0.00 84 1017.3
20260508124645 55 3 3.0 8.0 0.00 0.34 0.00 86 1017.3
20260508124142 55 45 3.0 9.0 0.00 0.34 0.00 88 1017.1
20260508123637 55 43 2.0 9.0 0.00 0.34 0.00 91 1017.2
20260508123132 54 31 1.0 4.0 0.00 0.34 0.00 92 1017.2
20260508122627 54 23 1.0 4.0 0.00 0.34 0.00 92 1017.2
20260508122341 54 330 1.0 4.0 0.00 0.34 0.00 92 1017.1
20260508121614 53 304 1.0 3.0 0.00 0.35 0.00 92 1017.1
20260508121108 52 315 1.0 3.0 0.00 0.36 0.00 92 1017.0
20260508120603 52 298 2.0 5.0 0.00 0.37 0.00 92 1017.0
20260508115550 51 309 2.0 4.0 0.00 0.39 0.00 92 1016.9
20260508115045 51 295 2.0 3.0 0.00 0.39 0.00 92 1016.8
20260508114538 50 293 2.0 5.0 0.00 0.40 0.00 92 1016.6
20260508114251 50 296 2.0 5.0 0.00 0.41 0.00 92 1016.7
20260508113525 49 281 2.0 4.0 0.00 0.42 0.00 92 1016.4
20260508113021 49 280 2.0 4.0 0.00 0.44 0.00 92 1016.4
20260508112743 49 249 2.0 4.0 0.00 0.44 0.00 92 1016.4
20260508112008 48 265 2.0 3.0 0.00 0.44 0.00 92 1016.4
20260508111502 48 265 2.0 3.0 0.00 0.44 0.00 92 1016.3
20260508110956 47 265 1.0 3.0 0.00 0.44 0.00 92 1016.2
20260508110449 47 265 2.0 3.0 0.00 0.44 0.00 92 1016.1
20260508105944 46 265 2.0 3.0 0.00 0.45 0.00 92 1015.9
20260508105438 46 252 2.0 3.0 0.00 0.46 0.00 92 1015.8
20260508104931 45 256 2.0 3.0 0.00 0.46 0.00 92 1015.7
20260508104426 45 255 2.0 3.0 0.00 0.46 0.00 91 1015.7
20260508103933 45 255 2.0 3.0 0.00 0.47 0.00 92 1015.7
20260508103414 45 256 2.0 3.0 0.00 0.47 0.00 91 1015.6
20260508102908 44 255 2.0 3.0 0.00 0.47 0.00 91 1015.6
20260508102403 44 255 2.0 3.0 0.00 0.47 0.00 91 1015.5
20260508101856 44 255 1.0 2.0 0.00 0.47 0.00 91 1015.5
20260508101350 44 255 0.0 2.0 0.00 0.48 0.00 91 1015.5
20260508100857 44 255 0.0 1.0 0.00 0.48 0.00 91 1015.3
20260508100338 44 255 1.0 2.0 0.00 0.48 0.00 91 1015.1
20260508095831 44 255 0.0 2.0 0.00 0.48 0.00 91 1015.1
20260508095325 44 255 0.0 1.0 0.00 0.49 0.00 91 1015.0
20260508094820 44 255 1.0 2.0 0.00 0.50 0.00 91 1015.0
20260508094534 44 255 1.0 2.0 0.00 0.51 0.00 91 1014.9
20260508093808 44 255 1.0 2.0 0.00 0.52 0.00 91 1014.7
20260508093302 44 255 1.0 2.0 0.00 0.53 0.00 91 1014.7
20260508092756 45 255 0.0 1.0 0.00 0.54 0.00 91 1014.8
20260508092250 44 255 0.0 1.0 0.00 0.55 0.00 91 1014.7
20260508091744 45 255 0.0 1.0 0.00 0.56 0.00 91 1014.7
20260508091549 45 255 0.0 0.0 0.00 0.56 0.00 91 1014.5
20260508091432 45 256 0.0 2.0 0.00 0.56 0.00 91 1014.6
20260508090226 45 255 0.0 2.0 0.00 0.56 0.00 91 1014.5
20260508085720 45 255 1.0 4.0 0.00 0.56 0.00 91 1014.4
20260508085214 45 255 1.0 4.0 0.00 0.56 0.00 91 1014.5
20260508084931 45 256 1.0 2.0 0.00 0.56 0.00 91 1014.3
20260508084202 45 257 1.0 2.0 0.00 0.56 0.00 91 1014.3
20260508083657 45 257 1.0 2.0 0.00 0.57 0.00 91 1014.3
20260508083150 45 257 0.0 2.0 0.00 0.58 0.00 91 1014.2
20260508082906 45 257 0.0 2.0 0.00 0.58 0.00 91 1014.1
20260508082138 45 257 0.0 2.0 0.00 0.58 0.00 91 1014.1
20260508081632 45 257 0.0 1.0 0.00 0.58 0.00 91 1013.9
20260508081125 46 257 0.0 0.0 0.00 0.58 0.00 91 1013.9
20260508080841 46 257 0.0 2.0 0.00 0.58 0.00 91 1014.0
20260508080114 46 257 1.0 2.0 0.00 0.58 0.00 91 1014.0
20260508075608 46 257 1.0 2.0 0.00 0.58 0.00 91 1014.0
20260508075101 46 256 1.0 1.0 0.00 0.58 0.00 91 1013.9
20260508074556 46 256 1.0 3.0 0.00 0.58 0.00 91 1013.8
20260508074050 46 257 1.0 3.0 0.00 0.58 0.00 91 1013.9
20260508073556 46 269 1.0 2.0 0.00 0.58 0.00 91 1013.7
20260508073038 46 269 1.0 2.0 0.00 0.58 0.00 91 1013.7
20260508072532 46 269 1.0 3.0 0.00 0.58 0.00 91 1013.4
20260508072027 46 267 1.0 3.0 0.00 0.58 0.00 91 1013.4
20260508071746 46 271 1.0 2.0 0.00 0.58 0.00 91 1013.5
20260508071015 46 271 1.0 2.0 0.00 0.58 0.00 91 1013.4
20260508070507 46 271 1.0 2.0 0.00 0.58 0.00 91 1013.3
20260508070002 46 271 1.0 2.0 0.00 0.58 0.00 91 1013.3
20260508065722 46 271 1.0 2.0 0.00 0.58 0.00 91 1013.2
20260508065002 46 271 1.0 2.0 0.00 0.58 0.00 91 1013.2
20260508064516 47 271 1.0 3.0 0.00 0.58 0.00 91 1013.3
20260508063959 47 271 1.0 3.0 0.00 0.58 0.00 91 1013.4
20260508063500 47 271 1.0 2.0 0.00 0.58 0.00 91 1013.3
20260508062959 47 271 1.0 2.0 0.00 0.58 0.00 91 1013.2
20260508062500 47 271 1.0 2.0 0.00 0.58 0.00 91 1013.1
20260508062000 47 271 1.0 2.0 0.00 0.58 0.00 91 1013.2
20260508061500 47 271 1.0 2.0 0.00 0.58 0.00 91 1013.2
20260508060959 47 271 1.0 1.0 0.00 0.58 0.00 91 1013.0
20260508060458 47 271 1.0 1.0 0.00 0.59 0.00 91 1013.0
20260508055959 47 271 1.0 2.0 0.00 0.60 0.00 91 1013.0
20260508055457 47 271 1.0 2.0 0.00 0.60 0.00 91 1012.9
20260508054956 47 271 1.0 2.0 0.00 0.60 0.00 91 1012.8
20260508054453 47 271 0.0 1.0 0.00 0.60 0.00 91 1012.8
20260508053954 47 271 0.0 1.0 0.00 0.61 0.00 91 1012.8
20260508053453 47 272 1.0 2.0 0.00 0.61 0.00 91 1012.9
20260508052947 47 271 1.0 3.0 0.00 0.61 0.00 91 1012.9
20260508052710 47 273 1.0 3.0 0.00 0.61 0.00 91 1012.9
20260508052205 47 271 1.0 3.0 0.00 0.61 0.00 90 1012.9
20260508051447 47 271 1.0 3.0 0.00 0.61 0.00 91 1012.9
20260508050945 47 271 1.0 2.0 0.00 0.62 0.00 91 1012.9
20260508050446 48 271 1.0 2.0 0.00 0.62 0.00 90 1012.9
20260508045946 48 271 1.0 3.0 0.00 0.62 0.00 90 1013.0
20260508045446 48 271 2.0 3.0 0.00 0.63 0.00 90 1013.1
20260508044947 48 271 2.0 3.0 0.00 0.63 0.00 90 1013.0
20260508044446 48 272 2.0 3.0 0.00 0.63 0.00 90 1013.0
20260508043945 48 259 2.0 3.0 0.00 0.63 0.00 90 1013.0
20260508043445 48 260 2.0 3.0 0.00 0.63 0.00 90 1013.0
20260508042945 48 260 1.0 3.0 0.00 0.63 0.00 90 1013.0
20260508042446 48 260 1.0 3.0 0.00 0.63 0.00 90 1012.9
20260508041945 48 260 1.0 4.0 0.00 0.63 0.00 90 1012.8
20260508041446 48 257 1.0 4.0 0.00 0.63 0.00 90 1012.8
20260508040947 48 255 0.0 2.0 0.00 0.63 0.00 90 1012.7
20260508040707 48 255 0.0 0.0 0.00 0.63 0.00 90 1012.6
20260508040212 49 255 0.0 0.0 0.00 0.63 0.63 90 1012.6
20260508035440 49 255 0.0 0.0 0.00 0.63 0.63 90 1012.6
20260508034933 49 255 0.0 0.0 0.00 0.63 0.63 90 1012.7
20260508034654 49 255 0.0 0.0 0.00 0.63 0.63 90 1012.7
20260508033922 49 255 0.0 0.0 0.00 0.63 0.63 90 1012.7
20260508033415 49 255 0.0 0.0 0.00 0.63 0.63 90 1012.7
20260508032909 49 255 0.0 1.0 0.00 0.63 0.63 90 1012.5
20260508032626 49 255 0.0 2.0 0.00 0.63 0.63 90 1012.5
20260508031857 50 255 1.0 2.0 0.00 0.63 0.63 90 1012.4
20260508031352 50 255 1.0 2.0 0.00 0.63 0.63 90 1012.4
20260508030845 50 255 0.0 1.0 0.00 0.63 0.63 90 1012.3
20260508030341 50 255 0.0 1.0 0.00 0.63 0.63 90 1012.2
20260508025834 50 255 1.0 2.0 0.00 0.63 0.63 90 1012.2
20260508025327 50 255 0.0 2.0 0.00 0.63 0.63 90 1012.3
20260508025041 51 255 1.0 2.0 0.00 0.63 0.63 90 1012.3
20260508024316 51 256 1.0 2.0 0.00 0.63 0.63 90 1012.1
20260508023809 51 255 0.0 2.0 0.00 0.63 0.63 90 1012.1
20260508023303 51 255 1.0 2.0 0.00 0.63 0.63 90 1012.1
20260508022758 51 255 1.0 2.0 0.00 0.63 0.63 90 1012.2
20260508022254 51 255 1.0 2.0 0.00 0.63 0.63 90 1012.2
20260508022011 51 255 1.0 3.0 0.00 0.63 0.63 90 1012.1
20260508021256 51 255 1.0 3.0 0.00 0.63 0.63 90 1012.1
20260508020754 52 256 1.0 4.0 0.00 0.63 0.63 90 1012.1
20260508020512 52 255 1.0 4.0 0.00 0.63 0.63 90 1012.2
20260508015749 52 243 0.0 0.0 0.00 0.63 0.63 89 1012.2
20260508015248 52 242 0.0 0.0 0.00 0.63 0.63 90 1012.0
20260508014748 52 242 0.0 0.0 0.00 0.63 0.63 89 1012.1
20260508014241 52 242 0.0 0.0 0.00 0.63 0.63 89 1012.2
20260508013959 53 242 0.0 2.0 0.00 0.63 0.63 89 1012.2
20260508013235 53 242 0.0 2.0 0.00 0.63 0.63 90 1011.9
20260508013219 53 242 1.0 3.0 0.00 0.63 0.63 90 1011.9